GFSMW_250_spd_084.txt.gz
Wind_Speed
43 26 17 31 32 25 18 28 27 22 22 19 24 19 21 22 20 25 29 39 38 46 45 52 48 39 39 37 39 38 38 27 20 21 21 21 18 26 33 36 37 40 40
39 23 25 36 32 22 18 20 17 18 20 23 20 19 19 20 23 26 35 34 37 38 43 44 46 38 39 37 33 25 23 21 24 21 20 21 20 22 30 34 34 38 43
31 24 37 37 30 19 16 13 12 15 17 25 22 22 18 19 20 31 25 36 39 38 39 42 47 48 34 31 24 23 24 27 30 25 26 27 26 25 29 32 37 41 50
31 34 41 36 26 19 13 12 11 12 10 28 27 17 21 24 24 24 33 35 40 41 46 50 52 52 54 45 35 36 33 29 36 34 31 28 28 29 31 35 43 44 45
37 45 44 34 28 18 14 8 9 9 6 22 26 21 28 29 28 30 35 35 35 44 50 48 54 53 51 51 45 42 37 42 37 40 34 33 35 38 43 43 42 44 50
45 47 41 35 28 20 17 8 7 8 9 13 27 26 31 35 31 37 36 41 46 49 48 46 46 51 54 51 46 45 42 38 35 35 36 43 40 40 41 42 45 48 53
49 49 43 39 30 24 19 12 8 8 9 7 27 30 26 38 38 34 33 41 43 44 49 47 51 55 53 48 50 52 49 44 48 48 45 44 44 43 49 52 52 50 52
54 51 45 37 30 28 21 15 9 5 6 5 9 29 29 26 41 41 39 37 37 49 51 54 52 53 50 52 51 51 56 56 52 51 55 50 52 52 55 53 49 51 53
52 51 44 36 33 30 25 20 13 9 5 1 3 12 30 31 34 38 41 38 39 42 48 52 53 54 52 52 52 53 55 58 58 55 51 54 57 56 54 53 55 58 58
51 51 45 39 36 32 26 25 18 13 10 5 2 2 8 28 32 33 41 40 39 39 36 37 42 47 47 50 47 47 50 53 54 55 56 57 57 57 60 61 63 65 67
51 51 48 43 38 35 31 27 23 17 15 13 11 8 8 8 14 24 43 46 45 42 38 40 41 41 43 45 46 46 49 52 55 57 60 62 64 64 66 69 70 70 71
50 48 49 45 39 36 34 30 29 25 21 20 20 16 11 12 10 11 14 21 33 47 56 54 52 51 52 51 54 56 56 59 60 63 63 66 67 66 63 62 52 44 44
51 46 47 45 43 39 39 35 34 31 28 22 21 21 22 18 17 11 13 13 12 14 16 21 31 41 47 51 54 59 59 58 49 39 34 34 31 32 32 33 35 35 37
53 44 42 42 44 42 42 38 39 38 34 30 27 24 22 21 22 18 17 18 19 18 18 18 20 23 24 25 26 26 27 27 28 29 32 35 36 38 39 40 40 41 41
51 49 44 43 42 40 43 41 42 40 37 33 31 30 28 22 23 25 26 26 22 22 22 25 26 27 28 27 27 30 32 34 35 35 36 37 40 40 40 40 42 43 44
52 50 47 41 43 39 42 42 43 40 38 38 38 36 32 30 29 31 32 30 28 27 29 28 27 29 32 33 35 37 39 40 41 42 43 45 45 46 45 46 47 49 49
54 52 47 42 39 42 44 45 45 43 43 41 40 39 36 36 36 37 38 37 36 38 36 36 37 37 36 38 41 41 42 43 44 44 46 47 50 54 55 56 55 58 58
57 54 50 47 45 46 48 50 49 46 43 42 42 40 38 37 37 38 40 43 43 44 44 44 44 45 43 46 47 47 47 48 50 52 53 52 55 56 59 61 62 66 65
52 58 55 52 51 49 48 49 48 48 47 46 45 45 45 44 45 46 46 48 49 50 53 52 51 51 49 52 53 55 55 54 55 55 58 61 60 61 62 61 61 67 69
47 50 57 53 53 52 51 51 50 50 49 48 50 51 52 52 53 53 54 54 55 56 57 57 58 58 58 57 58 59 59 60 61 62 63 63 66 68 63 63 67 69 69
55 55 50 50 53 53 54 56 58 58 59 58 56 57 56 56 57 58 59 61 61 63 63 64 63 64 65 65 65 64 66 67 68 68 68 69 72 75 71 69 73 77 77
61 61 58 58 59 59 61 61 59 59 59 56 56 57 57 57 58 59 62 63 65 66 67 68 68 69 70 70 69 68 69 71 73 73 76 78 78 77 77 79 82 83 84
70 63 69 66 67 66 69 68 64 59 59 60 61 62 63 64 66 67 67 67 68 68 69 72 72 71 70 70 70 72 74 77 79 81 81 80 80 83 85 87 90 91 91
69 66 69 69 70 74 73 69 70 67 64 66 67 67 67 67 69 70 70 71 73 72 71 71 71 73 75 76 79 80 82 84 85 87 87 88 89 92 95 95 94 93 97
81 71 74 75 74 74 75 74 72 72 74 70 72 72 72 74 73 73 74 73 77 78 80 80 80 82 83 83 86 88 90 93 94 94 96 97 100 104 99 99 100 100 104
79 78 78 81 80 82 82 81 79 77 79 81 80 82 79 78 78 78 80 81 79 81 83 87 91 91 93 95 94 94 93 95 98 100 101 106 107 108 110 109 108 109 111

GFSMW_250_spd_087.txt.gz
Wind_Speed
79 69 67 54 38 34 36 23 25 28 23 25 30 25 29 25 25 27 25 26 31 37 46 48 53 53 48 43 26 28 27 23 27 29 25 15 13 17 16 17 17 22 27
75 71 55 39 32 37 27 25 26 21 20 23 24 27 28 23 27 26 24 27 26 35 41 42 50 52 47 33 32 38 28 28 29 26 25 17 20 19 25 26 23 26 29
69 54 41 29 38 31 26 26 23 18 14 19 21 26 25 26 27 27 26 29 29 30 42 48 50 46 43 36 39 37 34 34 24 19 18 19 24 26 25 23 20 29 32
59 41 32 35 37 29 30 28 23 15 10 14 25 28 26 25 25 28 29 34 34 37 35 52 47 45 45 38 40 32 29 26 26 22 24 26 24 22 28 27 24 28 30
43 33 32 42 34 34 32 27 20 12 7 10 27 28 30 27 27 25 34 35 35 36 32 38 45 47 41 45 38 37 27 27 29 29 28 28 34 31 33 33 31 34 37
35 31 40 39 39 38 35 25 17 10 6 8 25 32 27 30 34 33 44 29 37 33 36 33 37 46 49 43 36 36 32 34 40 39 37 34 33 31 38 37 39 42 41
30 36 48 44 45 41 34 27 15 7 5 8 13 32 29 34 35 38 35 36 37 40 37 46 43 47 50 53 53 46 46 48 50 46 45 46 42 41 42 45 44 46 46
32 45 47 48 46 41 33 28 17 8 5 7 10 34 32 40 32 38 36 36 37 41 42 48 42 48 52 53 61 58 58 56 57 52 53 53 51 51 50 51 47 51 52
45 50 53 51 48 42 34 27 19 11 8 3 4 31 35 39 39 37 40 42 43 44 47 51 51 52 54 54 52 51 54 55 55 56 55 53 52 55 56 58 56 54 59
54 56 58 53 49 43 34 28 22 15 11 7 6 16 34 32 41 39 41 44 50 53 55 51 52 53 55 55 53 55 56 57 56 56 56 55 57 58 58 57 58 62 61
55 59 59 53 49 43 36 30 25 20 16 12 10 11 20 38 40 36 48 43 42 45 51 54 52 57 56 54 59 60 59 58 55 53 52 50 50 54 59 59 62 64 68
55 57 58 53 51 45 38 34 30 26 22 19 15 15 16 19 30 43 44 47 48 46 48 48 46 46 47 48 49 51 49 49 48 49 50 53 56 60 65 69 68 59 49
56 56 58 54 51 46 41 38 35 32 30 26 22 19 18 17 19 22 34 50 51 49 49 49 51 51 51 50 50 49 51 53 57 60 63 66 63 63 57 47 41 37 36
55 58 57 55 52 47 44 42 39 38 35 32 24 19 20 19 22 22 23 23 26 30 30 36 41 47 55 56 57 57 54 50 47 44 42 41 38 38 36 34 37 39 38
55 56 55 54 52 49 46 45 43 42 37 33 32 29 27 25 24 27 28 28 26 27 24 26 28 28 25 24 28 30 32 35 36 36 37 39 39 39 41 40 42 42 43
54 56 54 55 54 52 47 45 44 43 41 40 39 36 33 33 33 32 31 34 33 31 31 30 30 28 28 30 31 33 35 37 39 41 43 43 44 46 48 48 49 50 50
53 51 57 53 52 53 50 48 46 45 45 43 42 40 40 39 37 36 34 34 34 35 35 35 35 32 34 35 35 36 38 42 45 46 47 47 49 51 51 53 54 56 56
55 56 58 53 50 49 47 47 47 48 47 47 46 43 42 44 43 42 41 40 40 40 41 41 41 41 42 44 45 46 47 48 49 50 52 53 55 56 57 60 61 63 62
52 53 56 57 51 49 48 46 46 49 48 51 49 47 45 47 49 48 47 46 44 43 44 46 48 49 50 52 53 54 55 55 56 56 58 60 62 64 65 66 67 69 69
53 55 58 60 53 52 48 44 48 45 53 52 52 50 50 49 50 51 50 50 50 50 51 52 53 53 54 57 60 62 63 63 64 65 65 66 67 68 69 71 72 73 74
49 48 53 59 59 57 55 54 45 58 58 56 56 55 54 54 53 54 55 56 58 59 59 59 60 61 61 63 66 68 71 71 71 70 71 71 73 73 76 76 78 79 79
54 51 46 51 60 65 62 61 65 62 60 59 57 58 59 58 59 60 61 62 64 64 66 67 67 67 66 66 66 69 73 75 74 74 76 75 76 76 76 78 79 83 85
63 58 56 55 59 64 65 63 64 64 64 65 67 66 66 67 68 70 71 71 68 66 66 68 70 70 69 70 72 71 72 76 76 76 75 75 77 78 80 83 85 88 91
64 64 62 64 62 61 60 63 64 72 73 73 77 74 73 74 75 74 74 74 69 69 70 71 72 73 74 75 75 75 77 77 79 80 82 84 85 87 90 92 94 96 97
68 68 69 63 65 68 63 73 73 76 80 78 82 78 75 76 76 76 76 75 76 76 77 79 77 79 79 81 82 82 82 84 86 88 91 94 98 98 100 102 101 104 105
74 77 78 79 73 74 79 79 81 80 80 81 81 83 84 83 81 84 83 84 84 83 83 84 85 85 89 87 89 90 89 90 91 95 95 97 100 102 104 103 107 111 113

GFSMW_250_spd_093.txt.gz
Wind_Speed
71 69 71 70 70 70 70 74 75 73 69 68 63 49 39 31 32 34 28 30 33 35 46 50 52 55 58 59 52 52 51 50 47 38 36 35 31 29 26 23 21 19 22
67 67 67 68 71 73 74 74 76 65 71 64 49 37 30 28 33 30 29 32 33 31 46 44 52 55 58 54 53 51 48 47 43 41 41 38 35 33 30 27 21 17 23
68 70 70 70 67 68 72 73 69 68 75 52 37 29 27 30 28 30 32 29 30 27 33 43 48 47 61 60 47 52 47 47 43 42 34 41 41 37 33 25 27 25 27
65 67 64 65 66 69 70 72 71 75 59 39 29 26 28 29 30 32 28 31 29 29 32 39 45 41 55 61 49 49 49 49 55 43 38 39 41 40 35 30 23 24 27
59 62 64 66 67 69 74 74 71 60 42 33 29 26 27 29 31 29 30 30 32 35 33 34 40 39 48 51 59 52 51 55 47 46 44 38 37 36 34 28 27 26 30
64 66 68 70 73 77 78 73 60 49 36 34 29 28 26 29 31 28 31 30 35 33 28 27 31 34 36 45 47 53 50 47 49 46 42 43 48 42 38 31 28 28 33
68 71 74 76 82 80 70 68 59 40 37 33 31 31 26 29 30 35 32 34 35 31 29 31 26 29 35 36 49 51 56 50 47 46 45 47 44 42 42 37 36 39 41
73 76 81 82 82 75 73 56 40 40 38 32 31 30 28 30 32 37 35 36 35 32 35 26 32 38 36 37 40 55 55 47 44 46 51 43 41 41 43 42 41 41 44
76 78 80 77 77 67 57 42 41 42 37 33 31 28 28 31 34 34 37 34 34 33 43 38 39 36 39 38 36 40 47 47 49 48 45 45 44 44 50 51 48 49 52
75 77 76 71 58 54 45 40 45 45 37 34 30 30 26 35 36 38 37 33 29 26 41 40 36 35 39 42 37 41 43 44 46 47 45 44 45 47 49 52 55 58 60
71 72 67 57 54 44 39 45 49 43 38 33 30 31 29 37 42 40 40 38 35 29 38 33 31 31 41 37 34 42 41 47 50 51 53 54 57 59 63 63 63 66 69
66 60 53 57 39 38 43 51 51 45 38 35 31 29 30 34 45 45 38 39 38 37 39 31 35 34 39 45 45 49 48 49 54 58 58 60 63 66 67 67 69 71 67
54 50 51 47 39 42 49 54 51 46 42 37 32 25 27 27 46 46 39 39 40 39 41 41 37 40 42 48 51 51 49 54 56 58 67 70 69 70 68 66 67 69 67
48 47 53 40 43 50 55 55 51 48 45 39 34 28 24 25 43 44 45 41 42 40 41 42 44 46 51 50 51 52 54 59 58 60 61 63 65 67 71 71 65 63 64
43 48 47 43 50 58 58 54 53 51 48 42 36 29 28 26 33 37 50 45 44 49 50 47 50 52 53 56 57 60 62 64 64 63 65 68 70 72 72 71 71 70 72
45 43 40 45 56 61 57 54 55 54 50 46 41 33 30 29 32 31 36 43 52 56 55 55 53 54 55 61 67 66 67 69 71 74 77 79 76 74 79 76 74 71 58
39 40 42 51 60 59 58 56 58 58 54 47 43 38 35 33 34 33 28 34 37 47 60 59 60 57 60 58 60 64 69 73 78 79 79 75 68 63 60 59 60 60 59
35 41 46 56 57 57 57 56 59 59 55 52 47 44 41 39 39 38 35 33 35 36 38 43 54 63 66 64 65 70 68 63 60 59 58 57 58 59 58 57 56 56 57
37 42 51 57 52 56 56 56 59 60 57 55 51 49 48 46 44 43 42 42 42 42 42 43 44 47 50 51 52 54 54 55 54 56 58 60 61 61 60 59 62 65 66
42 48 53 58 60 57 59 56 56 60 61 58 56 53 50 49 49 49 48 47 48 49 49 50 49 50 54 56 58 61 61 62 61 61 61 63 65 66 69 69 68 68 68
50 52 54 53 54 38 57 58 39 65 63 62 59 57 54 53 54 54 54 55 55 54 54 54 55 56 58 59 60 62 64 65 66 67 67 66 67 67 69 72 71 73 75
55 53 42 45 54 64 59 59 55 58 60 63 62 61 58 56 61 59 55 58 60 57 57 59 60 63 64 64 65 66 66 68 69 70 69 70 72 74 75 77 79 81 83
60 65 55 54 53 58 60 58 59 61 58 57 60 62 62 61 61 56 54 51 61 65 66 67 67 69 70 70 69 70 71 71 72 74 75 77 80 82 84 84 85 86 88
64 68 73 63 45 53 58 57 51 60 51 53 62 61 61 55 59 63 62 64 67 66 70 72 71 69 71 73 76 78 79 79 79 78 81 83 84 86 88 89 90 92 94
67 70 65 63 65 66 63 60 66 69 60 62 57 63 54 62 68 71 72 69 70 72 74 77 78 81 83 83 82 83 84 83 84 86 87 89 90 92 92 94 96 99 100
68 70 69 69 63 63 69 70 71 69 65 61 66 64 69 77 76 78 81 77 75 77 78 82 86 86 86 91 92 93 95 94 93 93 95 97 99 100 101 105 107 106 107

GFSMW_250_spd_096.txt.gz
Wind_Speed
70 65 64 65 66 66 65 69 69 69 67 68 69 74 76 73 67 62 42 31 27 28 40 36 32 40 43 43 48 52 52 53 53 50 40 34 34 35 25 24 28 22 21
69 65 62 62 64 65 64 67 67 62 66 72 75 74 73 68 62 46 32 27 27 32 38 36 34 48 46 43 47 56 49 58 54 45 43 36 36 38 31 29 27 27 22
67 65 65 66 66 66 68 67 65 66 70 78 74 71 68 65 47 35 25 25 30 33 35 36 37 54 51 48 49 55 56 56 53 46 46 41 39 36 33 33 32 33 27
65 66 63 63 62 60 62 62 65 72 71 77 69 70 66 53 34 29 26 28 33 34 34 34 38 56 56 54 48 55 53 57 54 48 49 48 44 39 37 38 36 34 30
58 58 55 57 57 59 62 62 66 75 71 74 67 71 54 39 31 29 30 32 34 34 32 36 39 56 52 49 48 56 50 57 52 46 48 49 46 39 38 36 40 40 35
54 59 60 58 58 60 58 63 75 76 71 71 72 66 53 34 32 32 31 33 33 31 33 31 28 40 45 44 44 47 52 52 50 44 48 46 46 42 38 35 34 40 41
58 60 64 56 61 63 66 67 72 71 70 78 73 57 41 35 34 31 33 34 33 33 32 30 29 29 35 44 39 44 55 56 43 47 49 52 52 47 48 44 42 47 41
63 62 62 63 66 63 63 70 72 77 75 73 63 41 35 38 36 33 31 32 33 33 33 33 28 25 22 37 27 33 47 59 58 52 50 49 52 53 51 48 45 43 43
67 63 67 63 70 64 69 70 73 76 74 64 38 36 38 38 35 34 31 33 32 32 34 32 35 29 25 30 33 28 35 45 49 48 47 47 53 52 53 48 42 43 45
70 78 72 69 70 74 76 75 68 67 61 38 35 36 40 33 31 31 27 35 34 32 37 32 36 30 33 33 33 28 34 38 45 48 52 46 46 49 52 50 50 45 44
65 69 72 72 72 77 70 65 60 56 38 34 36 41 36 32 31 27 32 37 35 33 36 37 39 28 32 36 39 35 37 38 42 44 50 48 49 54 51 50 47 50 49
67 71 71 71 70 71 63 62 59 42 35 39 43 40 35 32 31 27 35 34 35 32 29 28 45 40 35 31 35 37 38 33 36 39 42 47 53 54 50 50 53 55 55
67 66 66 62 65 62 62 59 47 36 37 45 43 38 34 32 30 26 38 37 39 36 33 29 35 42 35 33 35 41 40 34 37 41 47 48 52 53 55 57 57 59 61
64 68 69 64 69 65 51 50 39 36 46 47 45 37 31 30 31 32 38 42 40 39 38 38 31 31 28 33 37 39 40 42 46 50 51 53 59 63 63 65 66 66 69
69 68 73 69 61 45 44 39 38 46 53 48 45 38 31 27 28 27 40 49 45 43 42 41 37 34 36 36 39 37 43 45 51 53 52 54 57 60 64 67 69 71 73
52 48 49 46 45 43 40 37 42 57 54 52 46 41 35 31 27 25 44 45 47 41 41 43 40 38 39 40 42 45 46 52 55 54 55 56 57 59 61 64 65 69 76
49 52 50 48 45 40 41 41 53 60 57 54 50 45 38 35 31 29 35 47 47 48 46 48 48 45 44 43 45 49 54 55 57 58 60 61 65 67 71 74 76 76 77
50 47 46 47 40 40 41 46 60 59 58 57 52 47 42 40 37 34 34 38 40 50 52 55 53 54 54 52 50 53 57 62 63 65 67 70 72 75 76 81 81 74 71
47 45 46 39 37 41 44 54 62 61 58 57 53 50 48 45 43 39 37 38 38 37 43 45 56 59 50 51 58 63 66 69 67 64 63 68 74 78 78 72 65 62 63
45 43 37 35 38 42 48 55 59 60 57 55 53 52 51 50 49 46 44 44 43 43 41 43 46 48 52 53 54 53 51 52 59 64 67 71 71 69 68 68 67 67 67
40 35 30 35 38 46 50 52 57 55 54 53 54 55 56 55 54 52 50 50 49 49 49 49 48 49 49 51 52 55 56 55 56 58 60 62 65 69 69 72 70 74 78
38 33 32 40 45 40 34 39 42 41 52 56 52 53 56 59 59 57 56 56 56 55 56 56 55 55 55 57 58 61 63 63 64 66 68 69 70 74 76 78 80 81 82
41 35 42 45 51 54 47 41 57 59 57 46 54 54 57 61 64 62 62 61 61 60 61 60 60 62 65 65 65 64 65 68 67 70 71 73 76 78 79 80 81 81 83
46 42 53 53 61 64 56 54 50 50 58 58 59 57 51 52 55 62 64 53 66 66 67 68 68 69 69 70 71 69 70 72 74 79 80 79 80 82 83 84 85 88 90
49 50 62 65 61 55 68 61 58 70 69 69 70 63 54 56 62 62 59 65 68 67 67 70 66 69 63 64 75 77 76 77 79 79 80 81 83 83 85 86 87 90 92
55 52 68 69 67 60 66 74 74 69 65 64 69 70 72 66 64 63 68 77 68 68 66 65 72 72 76 78 81 78 78 77 77 81 84 87 92 96 94 98 98 100 100

GFSMW_250_spd_102.txt.gz
Wind_Speed
84 81 80 70 65 59 62 63 44 42 37 42 44 49 46 44 46 52 54 53 52 55 59 61 65 57 42 31 27 35 41 46 49 50 46 46 44 42 41 38 29 29 29
70 70 82 72 66 61 64 60 47 46 45 43 47 45 41 45 51 54 53 51 53 60 58 63 59 48 36 27 32 37 39 45 49 48 48 53 45 43 46 41 32 33 32
71 69 71 76 65 62 60 62 52 47 45 46 48 47 45 47 50 52 55 55 58 60 58 58 53 41 33 30 35 35 40 47 53 53 54 46 42 41 43 40 35 31 33
66 65 65 66 63 59 57 62 60 56 50 49 55 52 47 47 50 55 57 59 60 57 61 52 49 36 31 34 35 37 43 49 57 56 57 56 45 44 45 39 40 34 33
53 52 55 57 62 59 59 59 57 60 60 60 52 54 48 48 51 60 59 57 59 61 60 52 42 36 34 36 38 31 38 43 54 62 64 58 53 47 45 46 44 42 42
46 45 48 55 63 60 59 59 56 56 52 49 51 52 50 51 58 59 59 59 60 63 60 50 38 36 36 39 38 42 38 43 45 51 62 58 58 54 50 47 50 48 47
45 47 53 60 68 64 62 59 51 49 52 53 53 56 51 53 57 59 57 60 62 61 57 41 37 38 39 39 43 44 43 45 50 50 52 59 57 54 55 51 50 50 47
43 48 54 58 60 60 57 51 52 54 54 56 53 56 52 56 55 56 60 63 60 64 47 36 39 39 38 41 47 47 50 47 55 58 54 47 55 57 55 58 56 51 50
46 54 55 60 53 51 52 50 52 52 46 50 56 51 52 52 54 56 57 56 62 56 37 36 39 36 37 40 43 41 40 48 59 53 48 43 46 51 57 51 49 51 50
52 50 58 58 61 56 54 49 50 50 53 51 50 52 54 55 57 60 59 59 61 41 35 37 36 36 36 37 35 31 36 46 58 57 53 47 46 44 49 52 54 54 53
54 52 57 61 63 49 43 44 49 51 56 55 55 53 55 58 58 57 61 63 49 36 35 34 36 39 36 34 31 32 34 42 48 51 49 48 47 51 50 48 46 50 54
63 57 57 58 54 56 50 51 53 49 49 53 51 48 54 58 57 59 59 49 43 35 35 36 38 37 35 37 34 32 34 36 41 48 50 41 44 43 51 53 48 50 51
52 65 61 57 54 60 56 60 51 51 48 46 47 50 57 60 58 55 48 46 37 35 34 36 35 34 38 37 34 32 30 27 36 36 32 33 37 39 50 54 54 51 50
38 42 58 61 54 53 54 57 55 55 54 51 53 55 59 65 64 48 47 42 36 35 37 34 33 38 37 37 40 39 35 32 34 38 36 33 35 38 42 46 52 56 57
47 41 44 53 49 55 54 52 52 57 56 52 55 62 65 62 66 44 48 42 40 39 37 33 38 34 37 40 39 42 35 34 33 32 40 41 39 42 37 42 50 52 53
52 46 51 53 54 51 52 54 57 57 58 58 60 65 64 65 52 47 43 42 42 40 39 36 41 40 37 41 43 43 42 41 40 40 40 40 39 40 42 46 49 51 49
44 48 48 49 51 54 58 58 59 59 60 63 64 65 64 60 50 43 43 44 42 45 38 37 44 44 42 42 47 47 50 48 48 45 42 45 44 45 46 47 50 49 52
46 48 51 52 54 55 56 58 60 63 63 63 62 65 66 58 44 43 47 45 44 43 41 39 47 46 44 46 45 51 52 47 47 48 45 43 47 50 51 54 55 54 55
46 54 56 57 59 61 61 62 64 63 63 64 64 66 52 48 46 46 50 46 44 44 36 37 53 45 53 50 46 47 45 45 47 47 43 44 48 50 52 54 56 57 59
48 54 59 56 56 59 62 60 58 62 63 68 56 53 53 49 49 50 54 50 48 42 39 34 48 54 50 54 56 55 51 51 54 52 50 50 52 53 55 54 56 57 61
56 55 58 59 62 62 62 62 63 60 56 55 56 54 53 49 51 54 59 53 53 49 45 43 44 49 53 46 50 55 57 54 53 54 56 57 57 57 58 59 61 63 65
54 52 52 55 55 53 53 51 51 54 56 56 50 52 52 49 54 55 60 56 57 56 52 49 46 50 49 58 58 50 56 58 59 60 62 63 66 67 67 67 68 71 72
54 51 51 47 51 52 53 55 56 59 58 52 50 48 42 47 53 57 60 63 62 61 60 56 54 53 53 54 54 59 58 57 65 69 71 72 74 74 76 80 82 81 80
55 52 52 53 56 58 56 55 57 56 50 49 53 56 48 41 44 63 63 64 66 64 64 64 62 60 61 60 60 60 61 60 60 61 62 63 64 66 67 69 72 73 74
54 55 57 56 53 53 56 55 53 48 48 50 53 54 56 57 55 64 73 70 69 69 70 70 69 67 66 66 67 67 68 67 68 70 70 70 71 72 73 74 75 76 79
54 56 55 52 53 56 55 52 51 49 47 50 52 58 58 64 66 66 71 74 75 76 75 75 75 74 73 73 73 73 75 75 75 75 76 76 77 78 80 81 82 84 85

GFSMW_250_spd_105.txt.gz
Wind_Speed
83 87 82 76 75 73 73 73 69 64 59 56 49 53 54 48 45 49 48 42 43 44 44 45 47 49 54 58 62 59 42 29 22 34 49 46 47 46 45 39 38 37 35
89 88 83 80 77 76 70 70 69 66 57 55 58 52 52 47 45 39 37 42 45 44 43 47 48 51 53 56 60 48 35 25 25 38 51 49 52 43 41 40 39 39 36
81 80 79 81 77 67 66 64 67 66 59 58 57 59 48 47 45 41 42 46 45 41 42 47 49 52 54 57 55 41 31 26 31 40 50 50 49 50 45 45 40 38 38
74 75 73 74 68 59 57 53 65 67 61 60 56 55 53 48 45 47 46 43 43 44 45 45 53 52 57 58 53 40 34 27 32 36 48 50 51 47 44 46 49 42 41
59 62 61 63 61 58 53 48 58 66 61 61 60 56 48 45 40 42 43 49 45 45 44 50 53 57 57 59 53 38 35 33 32 36 47 51 51 43 51 51 47 47 46
45 50 51 53 54 56 55 57 60 67 65 65 63 60 55 48 46 47 49 45 44 46 49 54 56 58 59 58 55 39 39 35 33 39 46 51 53 54 52 46 49 48 44
37 40 43 47 51 54 60 64 68 70 65 63 65 62 58 55 55 52 49 46 47 48 54 56 58 60 61 60 47 40 41 41 34 42 48 56 56 57 56 56 50 49 48
33 35 39 44 49 56 64 71 73 65 60 57 60 58 53 51 54 49 49 52 46 51 57 56 60 61 61 58 42 40 42 42 41 42 43 51 58 60 58 59 57 53 49
34 34 38 43 47 55 64 68 66 60 57 56 55 53 54 47 45 44 47 49 51 54 53 58 60 60 62 44 42 40 41 41 46 46 47 43 57 54 65 61 59 57 53
39 39 40 45 49 54 57 59 58 57 53 56 48 47 42 45 45 46 47 49 47 52 57 61 59 59 49 41 42 39 40 42 48 51 53 52 51 48 50 56 58 54 55
43 43 44 47 47 50 52 56 55 55 52 48 50 48 45 43 45 46 45 44 51 56 58 60 57 55 40 42 43 40 40 42 45 49 51 56 56 57 51 47 51 53 57
40 43 45 46 47 51 58 57 53 54 53 56 51 49 53 46 42 40 43 51 54 56 58 61 57 42 38 43 41 40 40 40 38 38 40 51 59 54 51 45 43 48 52
41 44 44 47 50 51 51 53 55 50 44 47 54 46 47 49 46 44 52 54 57 59 60 57 50 39 39 41 39 38 37 35 33 33 33 40 56 57 54 54 51 51 52
49 48 46 49 51 55 58 62 56 48 51 52 53 50 48 50 47 48 53 57 59 60 61 61 45 40 38 36 38 37 39 35 36 36 39 41 44 50 53 56 55 53 54
36 54 52 54 54 57 56 63 62 61 52 51 50 50 50 52 55 58 60 62 62 59 59 54 42 41 36 34 35 42 40 39 36 35 35 42 44 45 44 44 46 48 49
42 56 60 61 57 59 56 55 53 54 55 55 59 53 53 53 56 57 60 63 65 65 59 56 47 45 37 35 40 43 43 42 39 35 35 38 41 45 44 44 43 43 49
50 43 64 62 63 63 59 56 57 60 52 57 64 58 57 60 63 64 67 69 67 59 56 52 51 47 41 37 45 45 45 47 46 40 42 41 41 46 47 46 48 50 51
51 46 44 57 61 59 62 58 53 50 56 58 59 60 61 62 63 62 66 68 66 62 53 49 52 50 44 41 49 48 48 47 53 52 46 46 45 42 45 49 48 49 53
56 52 52 49 49 49 51 53 53 53 54 57 58 61 63 64 64 66 67 66 67 61 46 50 52 53 46 46 52 52 49 48 54 54 56 53 52 52 50 51 55 53 58
48 46 52 50 50 50 53 54 57 58 59 59 61 64 65 66 66 68 68 67 67 50 48 52 51 51 48 48 56 55 53 49 49 59 60 63 60 58 59 57 57 59 62
54 51 50 49 51 55 56 56 57 58 59 62 63 65 67 69 69 67 66 64 53 46 52 54 54 47 49 49 59 57 55 51 54 55 56 62 61 66 65 64 62 62 63
51 52 58 55 54 56 55 59 62 62 63 64 67 67 66 67 71 69 64 63 54 51 55 57 55 50 51 52 60 60 55 57 59 59 61 59 60 62 63 63 62 65 66
59 58 57 54 54 57 59 60 61 62 63 66 69 71 72 68 68 65 68 67 55 54 56 62 62 56 54 51 54 58 61 60 63 66 66 67 69 68 65 66 67 70 70
67 65 62 61 62 62 62 64 63 62 63 68 67 68 68 70 71 69 68 68 60 66 61 67 68 65 63 62 59 60 63 62 66 68 71 74 74 71 69 70 71 73 76
60 58 59 62 64 62 62 59 59 60 62 65 64 67 69 69 69 67 67 61 57 63 65 73 74 73 71 70 68 67 68 69 68 68 70 71 75 78 79 79 80 82 83
57 57 58 60 60 60 61 63 61 64 64 67 70 72 68 67 63 63 64 65 65 72 69 75 77 79 79 78 78 76 76 75 75 74 73 74 74 75 74 75 78 82 85

GFSMW_250_spd_108.txt.gz
Wind_Speed
89 91 93 89 85 81 69 60 64 66 66 75 76 76 70 64 56 52 57 54 51 44 41 40 43 42 38 41 41 42 46 49 52 49 31 24 33 49 51 43 43 43 41
88 90 90 93 89 82 75 62 62 68 67 68 71 74 74 66 58 54 53 50 46 40 40 44 45 42 41 42 44 42 44 48 51 45 26 25 41 49 47 43 45 44 42
92 90 89 94 97 84 82 75 64 66 68 65 72 74 70 64 59 54 53 45 42 45 42 42 41 41 39 42 44 44 43 44 47 42 25 33 45 44 44 45 46 44 40
82 85 84 86 90 86 82 76 68 65 68 67 68 71 68 64 61 56 60 56 53 50 42 41 38 37 40 41 45 45 45 44 49 42 27 37 46 46 52 49 47 46 42
81 75 72 72 72 72 70 68 68 65 68 65 63 69 72 67 57 55 58 60 52 46 43 42 40 40 38 40 46 46 48 46 49 44 32 35 50 48 52 48 48 44 46
65 63 60 62 66 61 61 63 64 62 65 65 60 66 71 66 57 57 51 51 48 47 45 42 42 42 40 43 48 50 49 49 50 48 36 38 47 55 54 55 48 47 46
53 51 47 51 52 51 50 56 58 60 62 63 60 67 71 66 59 56 49 43 40 42 46 40 42 44 45 48 51 52 53 54 50 43 39 38 40 54 58 56 57 54 50
44 40 38 38 40 43 47 52 56 59 60 61 60 67 69 66 59 57 52 46 40 44 45 45 49 48 46 51 53 53 52 52 52 39 43 38 44 46 55 58 55 53 57
32 29 33 32 35 41 47 51 56 58 56 59 65 69 68 62 56 51 53 52 52 50 51 44 41 44 47 52 52 51 57 55 46 40 45 41 44 50 54 58 56 56 54
24 26 28 31 34 37 40 46 52 55 58 58 66 66 64 58 55 55 53 51 47 48 43 42 41 45 49 49 51 54 57 57 41 39 44 46 44 44 55 60 59 60 58
28 30 29 30 32 34 35 40 44 51 59 60 60 57 58 52 48 49 54 54 49 48 40 40 43 49 50 50 52 53 55 42 36 41 45 46 47 48 48 52 64 62 58
31 31 32 34 34 32 33 32 36 44 51 52 48 48 45 45 44 47 46 46 44 40 37 39 51 52 53 52 54 52 45 36 40 43 44 47 49 54 57 53 53 56 61
34 36 37 38 35 33 34 39 40 43 50 49 47 46 43 42 40 46 45 44 42 38 39 49 54 55 56 55 51 51 42 39 43 46 46 47 49 51 57 58 56 57 52
33 35 36 38 38 35 37 44 48 51 52 51 48 45 46 43 42 45 44 38 34 38 45 53 56 57 57 54 52 53 44 42 45 46 47 47 45 50 54 55 56 52 53
38 35 39 39 39 38 37 40 46 52 55 51 51 51 52 49 45 45 49 49 45 48 53 54 54 57 58 58 54 56 46 45 44 46 45 42 39 41 41 47 51 55 57
34 37 39 42 41 41 43 46 46 49 50 50 52 53 50 52 47 49 53 51 55 58 57 56 60 63 63 60 63 58 48 46 43 43 44 40 37 36 38 47 54 57 55
43 44 40 42 45 47 45 49 48 51 50 51 49 43 44 44 51 52 54 53 53 54 58 60 63 65 66 67 65 57 49 45 41 46 45 40 41 40 44 49 45 48 51
46 36 38 42 46 48 50 50 51 54 52 51 46 49 44 45 59 58 57 57 58 60 61 66 67 69 72 68 65 56 49 44 43 50 46 45 44 39 40 43 46 50 51
53 44 43 45 44 50 52 51 55 57 52 55 51 56 52 67 67 65 63 61 61 62 68 69 70 69 70 71 61 52 51 46 46 55 53 52 54 47 47 45 43 45 52
53 48 41 46 44 48 54 57 62 57 59 62 58 55 56 65 56 54 61 64 68 70 70 70 71 71 71 68 58 53 53 50 48 57 58 60 60 62 56 56 56 52 51
51 49 50 43 50 50 53 50 57 58 61 62 60 63 60 64 67 69 67 69 70 71 73 73 73 74 74 67 57 56 56 56 50 58 64 63 63 64 64 63 63 63 58
55 50 52 52 50 49 53 56 56 55 57 60 62 65 64 66 71 71 72 73 73 75 77 74 72 71 67 66 58 60 58 58 55 57 66 68 67 66 68 71 68 69 67
59 57 55 53 55 52 59 60 61 63 59 59 63 67 70 72 73 73 76 76 78 79 76 76 72 75 78 74 58 63 61 62 56 61 67 70 69 67 69 73 74 74 75
56 56 55 54 52 54 53 55 61 62 62 64 68 70 72 75 76 79 80 79 80 82 82 82 79 81 82 79 63 67 69 63 63 63 70 75 77 73 72 71 72 72 73
55 57 57 55 62 65 65 68 67 66 66 68 70 72 76 78 79 80 83 86 87 87 85 84 85 86 82 79 69 73 72 71 67 67 72 75 77 78 77 76 77 76 77
64 64 64 63 65 66 67 68 68 72 73 75 78 79 81 83 85 87 90 91 91 90 90 88 86 85 86 77 75 76 81 79 77 73 73 75 79 80 80 82 82 84 84

GFSMW_250_spd_111.txt.gz
Wind_Speed
81 89 95 96 90 82 86 86 84 84 84 77 64 54 58 62 64 68 70 65 57 53 48 45 46 44 43 36 36 38 41 37 35 33 38 43 48 34 23 27 44 41 50
77 77 81 83 87 85 88 91 89 90 86 79 68 56 58 63 64 68 66 66 60 58 52 48 48 45 41 38 40 44 42 40 36 33 35 40 43 35 22 42 55 56 55
77 77 78 81 83 88 90 92 92 93 87 78 68 58 60 56 59 60 64 65 68 64 54 51 46 44 40 39 41 44 40 40 35 32 35 37 39 34 23 49 57 58 53
81 78 80 86 89 92 95 92 87 85 85 79 68 59 57 52 63 67 70 69 67 64 53 51 47 36 39 47 46 41 37 38 36 34 35 33 35 30 32 42 55 56 51
84 84 85 86 88 90 91 89 82 83 87 79 70 62 59 56 71 72 70 65 65 65 52 52 53 47 45 46 43 40 37 39 36 37 35 32 35 31 38 46 52 50 49
80 79 81 78 77 78 77 78 77 77 78 76 69 64 64 65 73 72 68 63 65 62 52 52 50 46 44 43 43 41 38 39 38 40 38 35 36 37 41 50 54 54 53
69 66 65 64 64 65 66 64 63 65 70 70 67 66 68 71 73 71 66 62 61 58 52 52 52 45 43 44 42 39 40 40 40 43 40 41 41 41 43 52 57 57 56
53 52 51 49 49 51 53 54 54 57 60 64 64 66 64 70 69 69 63 61 58 57 53 46 48 40 43 44 41 42 42 43 42 41 41 44 46 44 46 50 61 64 59
41 39 35 36 39 40 43 44 46 47 50 54 58 60 67 67 65 67 64 60 57 52 47 47 44 41 47 44 43 45 41 43 43 44 45 50 51 42 46 53 57 63 64
29 29 30 33 32 35 37 40 41 43 48 49 50 53 62 58 57 60 62 59 51 49 47 50 47 49 46 48 46 44 44 43 46 47 48 54 49 38 46 51 51 62 61
25 28 27 26 28 29 30 33 35 39 43 43 43 46 54 54 51 57 64 54 49 50 52 51 50 51 49 48 47 40 43 45 48 50 51 52 41 39 48 48 53 55 59
26 27 26 20 19 24 24 27 29 33 33 38 47 46 49 50 52 56 58 53 50 47 51 52 55 54 52 47 44 43 46 50 50 52 47 47 37 41 46 49 48 57 55
26 26 26 23 18 22 23 25 23 26 29 36 44 41 40 45 46 49 53 50 47 47 48 49 52 56 54 52 45 44 50 52 50 49 48 43 38 42 47 50 50 49 51
27 30 27 33 37 26 18 12 25 29 30 36 42 47 40 40 44 50 48 41 43 45 47 50 48 46 49 46 41 48 55 54 54 50 47 45 41 43 46 52 53 52 54
29 30 31 30 31 28 33 31 28 36 37 38 42 45 44 46 49 49 44 46 51 49 51 52 56 56 50 44 47 51 54 57 54 53 51 53 44 48 50 50 55 55 60
30 33 30 29 31 29 30 29 30 35 40 30 46 48 46 48 45 45 48 52 50 50 51 55 54 55 53 49 54 58 58 57 56 58 53 54 48 48 49 51 52 54 55
38 36 32 30 32 32 30 31 32 34 42 49 48 50 46 42 43 42 48 48 49 49 54 55 55 53 55 57 58 60 60 59 61 60 59 54 51 50 49 51 50 46 46
37 34 35 30 29 33 31 30 32 36 43 46 50 52 43 40 40 38 47 51 52 54 57 52 59 58 57 58 61 60 62 62 65 64 60 55 52 51 49 49 46 44 45
39 33 30 29 27 32 36 35 35 41 40 46 48 47 49 48 45 42 50 51 58 60 59 60 59 58 59 59 61 62 66 66 69 68 61 55 53 51 49 49 51 50 47
43 41 35 33 32 29 39 39 37 42 44 45 47 48 49 56 60 60 54 64 66 63 65 64 61 61 64 66 67 67 71 73 74 71 63 51 55 51 51 55 56 55 53
47 46 37 36 35 34 39 44 44 46 45 47 50 50 53 56 57 63 71 66 68 66 66 68 70 69 69 70 72 74 76 76 77 75 66 57 55 56 57 60 61 59 59
50 47 43 48 40 40 41 43 47 50 52 53 54 57 57 58 59 62 69 73 73 68 69 70 71 70 72 73 75 78 82 82 80 75 72 54 58 59 60 65 69 68 68
53 49 47 44 50 46 46 47 49 54 58 58 65 60 64 65 64 66 69 71 74 75 76 75 77 77 79 81 82 81 85 84 83 81 75 62 56 68 62 69 74 76 76
61 58 54 50 49 48 53 55 54 54 58 58 59 71 75 73 72 74 74 75 80 82 82 83 84 87 89 87 86 87 85 90 87 85 82 72 63 70 73 70 77 80 80
49 54 56 62 65 59 57 59 61 59 61 63 66 67 71 76 78 78 82 83 84 86 88 89 90 91 92 93 92 93 94 93 90 90 91 84 78 72 79 77 78 84 86
45 49 54 55 57 63 64 63 60 60 66 67 69 75 77 78 78 83 84 85 88 90 93 94 96 98 98 98 100 100 97 99 98 97 95 92 86 73 83 84 81 86 90

GFSMW_250_spd_114.txt.gz
Wind_Speed
90 88 89 89 80 77 82 85 88 89 90 88 86 82 84 86 79 69 59 61 57 62 50 52 52 44 40 41 41 41 43 38 36 40 40 39 38 37 39 41 43 28 25
90 83 82 83 85 85 89 90 91 94 89 87 89 89 88 87 86 79 61 59 61 62 63 54 55 53 43 39 43 44 42 41 44 42 40 41 38 35 37 38 37 19 29
89 88 90 92 93 92 92 93 93 92 94 92 90 88 92 88 86 81 70 67 67 65 60 58 55 56 47 40 43 43 40 44 45 38 41 41 38 33 34 36 30 24 30
93 93 92 94 92 91 91 91 91 93 95 96 93 89 88 93 86 86 80 70 63 65 62 60 56 58 50 44 47 45 41 46 42 40 41 38 37 31 33 35 21 35 46
92 89 89 89 92 90 87 88 88 91 95 94 93 92 88 91 92 87 86 74 64 65 68 58 54 56 51 47 45 40 41 46 44 44 42 36 35 32 31 31 16 32 46
88 87 86 85 86 87 87 89 90 91 91 91 90 90 89 87 92 87 87 82 62 67 70 59 54 56 51 45 46 46 47 49 44 44 42 36 33 33 30 29 28 30 36
79 77 79 78 78 77 77 77 76 77 81 77 79 81 81 78 79 78 82 76 59 66 67 58 56 58 51 46 49 50 54 50 45 44 42 36 35 34 33 33 33 35 36
71 69 67 66 64 63 64 65 65 66 68 68 70 74 73 72 70 72 74 70 63 72 66 61 57 58 49 47 44 49 47 46 42 41 41 39 39 34 37 38 37 44 43
59 58 55 56 56 56 55 53 53 55 56 55 56 60 63 64 67 71 73 72 63 70 63 61 56 55 50 46 44 39 39 44 41 44 44 41 40 38 42 41 47 50 48
48 44 44 43 43 43 41 38 39 41 42 44 46 48 52 54 61 67 67 68 64 65 63 57 55 55 52 48 47 46 41 46 47 46 44 42 42 42 45 47 51 49 48
34 32 28 27 26 25 27 28 29 31 31 31 33 37 40 44 50 54 56 56 66 58 58 54 53 56 56 52 50 49 40 45 51 46 48 45 44 42 43 48 52 42 47
21 16 15 16 15 15 20 21 21 21 23 22 21 22 24 28 36 38 46 51 52 54 56 53 53 51 55 51 49 48 48 53 52 51 50 47 48 44 42 44 42 37 47
10 15 18 15 14 14 12 6 10 12 13 14 19 23 24 27 29 37 39 42 46 47 55 51 48 46 51 50 49 46 52 49 53 53 54 53 49 46 44 40 36 37 49
22 23 25 21 19 13 6 0 11 11 17 18 24 31 28 25 31 33 35 37 38 43 47 49 50 44 51 54 56 54 59 61 59 57 59 54 49 48 47 41 40 38 47
30 30 30 29 22 20 18 19 11 14 19 26 28 32 33 34 37 36 37 38 41 48 47 49 46 42 48 52 56 59 60 62 60 60 58 51 52 54 48 46 43 42 46
34 37 34 31 29 25 27 19 17 21 21 30 31 34 37 37 39 41 39 41 41 48 46 44 45 46 53 58 58 62 65 64 63 59 54 56 58 55 52 50 49 50 47
31 34 33 30 31 30 31 25 22 30 28 36 41 40 41 36 37 42 42 43 43 46 47 49 52 51 55 59 62 64 65 65 63 60 58 61 58 59 54 55 56 56 50
35 37 33 27 26 30 30 27 23 33 38 39 39 46 49 46 42 39 38 41 44 52 54 52 51 55 57 61 64 65 65 64 65 62 62 62 60 59 57 57 58 57 52
38 37 30 29 27 30 28 25 26 33 37 37 41 44 47 48 40 41 38 41 41 44 49 53 59 60 59 63 63 65 68 66 63 61 62 64 62 61 57 61 63 56 51
39 38 36 28 30 27 25 27 26 33 42 38 43 48 49 51 47 47 48 46 46 49 51 59 62 65 66 64 65 66 68 69 64 64 64 65 63 65 64 65 67 56 51
44 41 40 31 33 31 27 32 31 30 33 42 49 46 42 46 43 46 53 56 58 61 65 66 66 69 70 69 71 72 70 68 67 67 69 70 72 71 70 72 69 62 54
46 46 44 40 33 37 37 34 39 37 37 45 47 50 52 53 50 55 55 56 58 66 66 69 71 73 77 76 77 77 78 77 78 77 74 76 75 78 77 75 72 68 56
44 46 47 43 42 41 42 40 42 43 43 46 51 52 56 60 58 60 60 62 67 69 72 73 73 74 76 76 79 80 82 80 77 77 80 80 76 77 79 80 80 73 62
54 51 49 51 48 47 42 49 47 52 52 52 54 58 60 61 64 66 68 68 74 77 78 82 82 83 86 85 82 81 81 84 85 83 84 85 85 84 87 86 86 82 78
46 54 59 57 60 57 54 46 51 55 57 60 62 62 65 67 69 71 74 75 78 80 80 82 84 85 87 88 92 93 93 93 90 89 90 89 92 96 95 91 92 92 89
43 46 51 51 50 58 65 64 59 55 60 65 69 70 72 75 76 78 82 82 84 86 89 90 92 93 95 97 98 100 99 98 98 100 98 101 102 103 103 100 97 98 96

GFSMW_250_spd_117.txt.gz
Wind_Speed
93 92 92 93 93 93 95 95 89 88 85 83 80 79 78 78 77 76 75 76 74 72 69 64 56 57 53 52 51 45 44 44 41 32 36 37 40 40 38 40 40 45 46
99 98 98 100 100 98 96 96 94 90 85 84 85 85 83 85 82 80 84 82 82 80 74 73 64 62 52 54 51 46 43 40 40 36 36 37 42 44 40 41 38 42 40
105 106 104 104 102 98 98 97 97 96 94 94 92 89 90 90 90 86 82 84 83 82 78 76 65 57 53 56 53 51 43 38 36 39 39 40 49 44 38 42 38 38 37
107 106 104 105 105 106 103 99 100 101 104 100 97 98 95 91 88 87 85 84 82 80 77 75 74 64 58 55 59 55 50 41 40 37 36 44 44 42 40 40 36 34 34
105 103 104 104 105 105 106 105 104 101 99 99 100 97 95 90 89 86 85 85 82 81 83 75 74 68 61 56 62 59 54 45 41 40 39 44 43 43 42 37 36 30 28
105 106 106 105 106 107 107 101 96 94 94 95 95 95 93 92 91 87 83 80 81 84 81 81 78 72 62 57 60 61 57 49 42 39 38 43 44 45 42 37 34 30 31
107 104 107 105 101 97 95 91 89 88 91 91 92 92 92 92 90 87 83 82 84 84 77 77 81 77 67 58 60 62 56 50 44 40 37 45 47 44 41 38 35 32 33
91 90 87 82 81 81 83 85 82 80 80 80 78 77 79 79 80 81 84 81 84 85 85 79 77 79 62 57 57 61 53 49 45 43 52 54 52 45 40 38 35 35 36
77 75 72 74 74 71 69 70 69 66 64 62 63 64 66 68 69 68 71 69 74 80 82 86 82 77 61 64 58 60 49 48 47 46 40 48 49 44 42 39 38 37 39
64 64 62 57 54 54 53 51 52 51 50 48 48 50 52 52 53 57 60 60 55 61 69 79 72 71 63 65 59 60 49 49 47 48 42 42 46 43 43 42 43 42 44
48 44 42 40 41 42 43 43 40 39 39 38 39 42 45 42 40 42 45 48 46 52 61 66 62 60 69 63 60 60 57 51 50 52 44 41 43 44 43 44 47 47 47
33 31 31 30 27 23 22 22 21 21 20 21 19 22 27 30 29 28 25 29 38 48 55 52 54 64 61 57 64 60 56 53 53 49 48 44 43 45 45 49 49 49 50
26 24 21 16 15 12 11 9 6 11 14 7 7 9 16 20 20 27 34 28 31 33 44 49 48 59 55 58 62 58 55 56 49 50 49 43 49 51 53 52 51 50 53
19 21 18 20 18 11 2 7 7 6 5 3 4 10 13 22 18 20 26 29 35 41 42 49 50 60 58 63 61 58 55 53 54 53 51 48 52 56 58 59 57 56 56
33 28 27 27 22 18 11 8 5 2 11 14 15 14 16 23 26 22 22 27 33 36 42 43 48 50 53 56 53 53 57 55 57 58 59 55 58 62 61 61 59 59 58
37 33 33 27 25 24 22 10 7 5 11 21 21 20 20 20 25 29 30 31 33 36 40 38 39 44 42 48 50 50 45 49 51 55 60 63 64 64 66 64 61 60 61
40 40 35 27 26 28 26 22 17 17 14 20 23 23 24 23 22 27 31 36 36 38 39 39 45 49 51 48 47 44 46 52 56 62 69 71 71 70 68 65 64 67 64
39 45 41 35 32 29 29 22 21 24 22 24 22 26 30 28 21 27 29 28 24 28 32 36 43 48 50 50 51 52 53 56 62 67 72 73 72 73 70 66 67 64 67
40 41 43 38 33 29 30 31 24 28 25 33 26 30 37 28 31 34 34 30 25 29 33 35 44 51 55 58 59 60 61 65 66 71 74 73 73 72 70 67 67 69 60
45 40 36 31 31 26 31 29 30 25 32 35 35 39 45 43 37 44 41 39 36 37 42 41 45 52 60 61 58 61 63 70 72 74 73 68 69 71 72 70 70 64 64
45 44 39 33 33 28 30 34 30 25 28 39 41 45 48 43 47 50 50 44 47 50 52 54 50 60 58 61 63 65 66 68 70 73 74 74 73 76 76 74 72 72 70
48 46 44 40 38 32 35 35 31 32 30 43 42 46 51 50 46 53 51 54 54 51 57 57 58 63 65 68 71 72 73 74 76 82 84 83 78 75 78 78 77 76 75
44 47 47 47 45 40 33 41 40 40 40 41 50 46 49 56 59 59 58 55 57 59 59 65 66 68 69 72 76 77 77 81 82 85 87 86 84 83 82 83 84 83 79
48 46 46 46 44 50 46 43 47 46 50 47 49 50 55 56 62 63 61 63 62 65 68 69 73 74 73 76 79 81 82 82 85 87 86 87 88 90 90 89 90 90 89
51 50 50 55 52 50 48 50 45 53 54 56 56 55 59 64 63 69 68 67 70 72 75 77 77 79 83 83 84 87 88 90 89 90 93 94 94 94 96 96 95 96 97
55 58 60 58 60 61 60 56 56 55 53 63 63 64 65 66 73 71 75 75 77 79 83 84 85 86 88 89 89 91 94 97 98 100 100 99 102 104 103 104 105 102 100

GFSMW_250_spd_123.txt.gz
Wind_Speed
101 93 89 93 99 98 91 91 87 81 87 89 83 83 81 82 82 82 79 76 73 71 77 79 62 63 72 74 70 60 52 56 56 49 45 44 48 47 42 36 36 36 37
107 103 103 102 106 103 101 97 95 91 89 93 95 92 92 90 87 85 83 80 78 79 77 75 52 71 73 72 73 65 60 57 56 56 51 50 45 52 45 39 40 37 38
110 108 107 101 95 94 101 101 100 97 94 95 98 98 94 91 89 87 85 82 79 76 79 76 69 78 76 70 76 67 63 62 54 57 56 49 48 48 48 41 40 42 39
105 107 101 93 92 92 92 99 102 100 96 98 100 102 102 100 99 95 91 89 86 86 86 77 75 70 72 73 73 68 61 55 54 49 52 50 48 46 48 43 39 45 40
95 98 92 86 85 83 88 90 93 95 96 99 101 103 101 102 100 100 98 95 96 94 93 88 83 78 75 72 67 72 57 46 47 50 51 58 51 43 50 48 40 45 44
86 85 82 76 76 74 76 81 85 87 88 93 97 100 103 104 102 103 102 100 98 97 92 92 86 84 84 77 73 65 44 37 52 61 58 63 60 52 51 51 46 42 47
75 75 73 68 65 66 65 67 70 76 81 84 90 95 99 103 104 104 104 101 100 97 97 97 95 91 85 80 76 70 41 37 68 82 70 74 64 53 48 53 52 45 45
64 60 57 55 53 55 56 57 59 62 67 72 78 85 88 93 100 107 108 106 105 101 99 97 98 92 74 65 63 64 58 62 78 74 54 64 62 59 53 55 55 52 46
52 51 49 45 43 44 47 50 51 54 58 61 66 71 75 78 84 91 95 96 96 94 89 85 79 77 72 63 59 64 58 67 69 69 34 65 76 76 65 56 56 56 51
46 46 46 46 44 41 41 42 45 45 47 50 51 54 56 58 61 65 70 73 76 77 78 78 74 71 71 63 64 57 58 57 62 62 73 82 80 78 62 58 59 57 53
44 45 43 43 39 36 34 35 36 37 40 41 43 45 46 47 49 52 53 56 59 60 61 64 63 64 67 62 67 62 56 51 58 66 73 74 70 58 61 61 61 57 55
41 40 38 34 28 26 26 26 26 25 25 25 25 26 29 34 37 40 42 41 41 42 46 48 56 59 63 56 76 67 54 51 65 71 75 74 69 52 61 60 59 64 54
35 31 28 26 22 23 22 17 13 10 10 13 13 16 20 24 28 29 27 30 31 33 40 42 49 55 61 68 79 70 65 58 66 77 74 71 67 64 58 64 60 64 57
27 24 22 19 18 17 14 15 12 9 5 5 9 13 16 19 24 21 23 23 26 27 31 35 42 56 58 75 80 80 68 53 50 50 53 59 63 61 60 62 67 64 58
20 19 19 20 22 19 20 17 17 13 11 9 12 12 14 16 18 18 20 20 18 21 24 30 39 46 51 72 72 66 49 44 47 53 53 56 62 58 62 64 67 67 62
20 22 29 29 25 21 21 17 13 10 15 16 12 15 16 15 17 19 17 13 14 20 25 27 37 48 58 65 66 45 35 41 46 52 56 52 51 57 70 63 68 65 70
27 35 35 31 25 21 21 19 16 14 19 15 15 16 18 21 17 20 21 23 23 23 30 34 44 55 60 66 62 51 43 41 36 49 51 63 58 63 66 65 72 67 67
34 37 35 30 27 25 24 20 16 17 18 18 17 16 16 18 20 16 18 25 27 31 33 36 42 50 52 54 52 47 45 43 48 54 56 57 57 55 63 70 76 67 69
37 38 34 32 33 29 30 29 23 21 21 21 23 23 17 21 22 22 22 25 29 33 36 43 49 56 60 51 61 58 45 46 37 56 50 54 55 54 58 68 75 72 75
40 39 33 33 32 34 31 34 34 29 25 27 25 25 23 24 27 25 26 27 26 25 35 39 46 61 52 47 55 55 50 50 50 48 45 52 56 49 50 66 73 76 80
42 37 30 35 37 38 34 36 35 38 34 31 29 29 27 29 29 29 32 34 33 34 35 39 42 48 55 57 57 58 56 58 60 62 56 55 52 60 61 66 80 81 82
39 37 33 34 36 39 43 43 42 38 35 36 38 36 36 35 36 35 36 38 37 39 40 43 46 48 52 55 60 66 70 72 71 71 65 67 60 76 84 77 87 85 82
38 37 35 35 41 38 41 40 40 41 42 41 40 36 44 45 44 45 44 44 45 47 45 47 50 51 53 60 67 68 66 65 70 71 73 75 70 78 83 80 85 90 89
38 42 44 43 44 49 46 46 47 48 48 43 43 47 45 50 52 53 53 53 52 56 54 52 53 56 56 59 67 70 70 69 74 73 78 84 81 80 83 87 90 91 93
45 47 48 53 56 53 55 55 55 57 56 57 52 52 54 53 53 57 60 63 63 62 62 63 63 63 66 68 74 77 75 74 78 81 81 87 86 87 89 94 94 95 97
49 53 55 57 57 61 62 63 62 63 61 61 61 60 59 61 61 61 61 65 71 72 72 72 72 73 72 76 79 83 85 86 88 84 88 91 94 97 99 99 100 104 103

GFSMW_250_spd_126.txt.gz
Wind_Speed
95 95 99 100 101 101 107 105 102 100 99 96 92 86 85 80 76 74 73 69 69 62 55 60 74 52 50 60 67 63 62 62 54 49 55 57 52 44 40 32 32 38 39
100 106 103 104 108 109 109 105 103 103 100 97 99 94 90 90 86 82 77 78 72 69 67 59 67 67 60 60 49 58 62 54 47 54 66 59 47 45 41 32 35 36 40
114 113 112 111 114 111 107 99 95 95 97 97 97 98 95 96 98 91 85 82 83 81 76 78 76 60 63 48 57 62 69 65 57 63 62 61 55 49 41 36 35 41 39
120 114 112 115 112 103 94 91 90 89 90 90 89 92 91 94 97 99 91 87 88 87 86 83 78 73 75 74 73 72 75 64 55 50 46 43 50 48 44 43 39 41 44
118 108 109 106 100 91 87 83 81 80 80 82 81 79 84 88 95 99 97 93 91 92 93 89 88 83 82 81 78 77 73 61 61 53 38 33 39 43 45 53 54 47 41
104 97 93 93 93 84 76 70 66 64 64 67 75 75 76 80 89 98 97 97 95 96 95 97 95 93 90 89 83 75 72 67 56 50 35 36 40 62 51 56 65 55 45
89 90 87 81 76 70 64 58 53 52 52 54 59 65 67 73 80 87 93 97 95 99 98 98 96 94 93 90 87 78 72 71 46 35 60 53 70 67 78 61 56 57 48
80 75 71 67 62 58 52 48 45 45 43 44 48 51 55 60 69 75 79 85 90 97 102 102 99 97 96 93 89 79 74 70 65 65 44 58 44 60 62 67 55 58 52
64 60 56 50 49 49 46 42 39 39 39 38 40 41 44 48 55 64 71 74 78 86 93 100 104 104 104 99 94 85 77 66 59 70 68 79 64 64 65 57 55 56 60
52 47 43 42 42 42 40 38 39 36 36 35 35 35 35 39 46 53 62 69 74 79 84 89 93 95 95 97 96 90 83 76 73 74 76 82 66 60 71 57 60 64 58
43 43 41 37 37 33 32 34 35 34 32 30 31 32 32 33 36 43 51 59 65 70 76 79 82 84 85 89 88 82 84 80 79 76 67 77 70 69 60 60 65 66 61
41 40 37 36 33 32 30 30 26 24 21 21 22 25 27 29 31 35 41 46 52 55 59 64 66 69 72 75 77 78 75 77 76 75 71 80 71 66 64 55 57 62 68
36 34 34 34 29 27 24 19 17 14 12 12 14 15 17 19 23 27 29 32 37 42 46 51 56 60 64 66 68 73 74 77 86 83 83 80 61 70 76 77 72 71 72
34 32 32 27 26 23 17 17 16 14 12 12 9 7 9 13 14 19 20 22 25 30 34 41 44 50 55 60 64 69 75 78 87 81 78 73 74 65 76 77 78 71 76
27 25 22 20 21 15 18 19 17 14 15 11 8 8 9 11 12 16 14 15 23 27 25 28 32 39 44 49 57 61 69 77 86 81 84 86 75 62 69 70 67 67 70
20 19 17 21 19 22 22 21 17 16 21 18 17 12 12 10 10 11 14 20 25 23 23 22 28 32 38 43 50 53 55 74 83 81 88 88 90 64 59 65 62 66 67
19 19 24 26 22 24 22 20 19 17 21 17 18 17 14 14 13 16 17 22 22 26 24 22 19 26 31 35 39 42 44 63 80 87 90 79 70 63 57 58 60 63 67
21 28 32 29 25 25 22 21 20 20 17 15 16 20 21 17 16 16 19 21 19 22 22 20 21 20 26 30 34 39 48 57 73 80 72 66 64 58 49 49 47 62 63
31 35 35 31 29 26 26 26 24 22 20 20 17 18 20 21 22 21 20 22 23 24 23 24 22 24 26 28 37 46 53 58 69 63 65 63 51 61 58 57 58 61 63
35 37 36 34 32 29 31 31 28 27 25 24 26 23 24 23 23 27 26 24 25 27 26 26 27 31 35 36 48 55 65 70 75 77 72 66 61 63 70 71 62 75 76
37 35 34 35 33 33 35 36 35 36 33 30 30 29 30 27 27 27 33 31 29 27 30 30 32 36 41 47 51 55 65 68 68 68 70 73 67 69 70 70 73 72 67
36 35 37 37 40 36 37 38 38 37 36 36 37 36 36 34 34 32 34 36 35 33 33 35 41 49 47 53 58 63 69 73 72 70 75 76 70 67 71 72 77 76 80
35 40 38 39 42 41 41 40 42 46 43 42 40 38 40 41 42 40 40 41 41 41 39 39 45 54 61 61 64 65 71 74 74 76 83 80 77 75 74 74 77 75 80
40 36 37 39 43 42 41 42 44 49 48 48 47 47 47 47 45 44 45 49 49 47 48 46 46 50 56 68 70 69 71 76 81 82 81 84 85 85 82 82 83 85 85
39 42 44 46 48 50 51 48 48 48 52 53 51 52 53 54 55 53 54 51 57 57 56 58 59 57 58 62 69 74 78 75 81 89 90 89 88 88 91 94 94 93 93
45 48 51 52 53 54 54 55 58 61 61 60 61 62 62 62 61 61 60 63 62 66 66 66 69 66 69 69 72 73 77 83 87 91 90 93 97 99 100 99 102 99 100

GFSMW_250_spd_132.txt.gz
Wind_Speed
83 84 84 86 87 88 91 93 97 99 101 102 103 105 104 103 103 103 99 98 96 92 89 75 66 75 67 70 53 55 67 63 59 52 40 37 49 52 48 42 40 35 26
93 93 93 93 94 95 96 98 100 101 103 104 107 109 113 114 114 113 112 112 111 107 99 95 78 73 82 77 75 67 62 59 55 51 50 48 49 43 49 53 45 38 31
101 102 101 101 102 105 106 107 107 106 109 112 111 115 116 115 116 117 119 118 114 110 110 104 87 79 86 87 79 67 64 62 53 47 53 50 48 53 47 54 49 46 36
107 109 110 110 109 110 111 113 112 112 109 108 107 103 99 96 101 100 102 104 101 99 99 96 85 81 92 90 85 73 69 64 52 41 48 56 52 51 50 55 52 49 46
111 112 111 110 113 113 113 110 107 107 101 96 91 86 83 85 87 88 89 94 95 85 89 87 84 80 94 100 90 82 76 73 59 56 59 62 57 44 52 63 60 53 48
114 114 113 113 113 111 103 104 100 95 91 88 83 79 77 76 76 79 81 79 84 81 75 82 82 80 90 100 101 92 86 78 67 66 61 56 53 50 61 70 68 50 48
116 110 111 110 107 101 98 95 90 83 80 77 73 69 66 65 65 66 67 66 70 73 72 75 78 76 84 102 101 102 98 91 79 71 60 62 67 67 66 62 68 56 54
102 103 100 100 98 92 85 79 74 72 68 63 59 54 52 51 52 55 55 57 59 60 65 69 74 74 78 99 102 105 105 99 92 86 78 60 64 70 76 51 62 67 60
101 97 94 91 83 76 72 69 64 58 55 50 45 44 44 43 43 44 45 49 52 53 56 61 70 70 76 86 103 107 110 106 103 98 89 80 67 38 70 61 79 71 65
89 83 80 73 70 68 62 58 52 46 40 39 39 40 39 38 41 41 43 43 45 46 47 54 61 67 71 79 97 106 112 110 104 104 103 94 93 71 77 75 75 77 76
75 70 65 63 58 54 50 47 44 35 31 32 34 34 31 31 33 34 36 37 39 37 37 44 53 60 67 74 84 103 110 112 111 111 106 104 104 103 90 85 80 83 82
64 58 54 50 45 44 44 42 37 29 29 29 27 27 26 24 22 25 28 31 31 30 32 37 45 53 60 66 75 92 106 110 112 113 111 108 112 112 109 103 95 93 89
54 48 42 40 41 41 39 36 32 29 26 23 20 19 18 11 12 14 17 20 23 24 27 31 37 46 51 61 70 80 94 106 109 112 117 113 114 113 114 113 109 102 98
45 41 38 37 38 36 33 31 29 25 22 20 18 22 10 10 10 7 9 9 13 16 22 24 28 34 43 53 63 70 80 91 101 107 112 117 117 115 116 114 113 112 104
41 38 37 36 34 29 26 23 21 21 20 21 21 20 13 10 11 8 8 6 9 11 10 12 16 22 30 42 55 64 71 79 87 94 102 108 112 117 119 117 114 112 110
35 32 29 26 23 21 20 20 21 24 23 21 21 18 9 10 11 8 7 4 6 6 7 11 11 11 19 26 38 51 61 72 78 81 87 97 105 113 113 114 115 116 113
27 24 21 19 18 18 19 23 28 27 25 22 19 13 12 10 10 8 8 7 6 8 9 11 15 15 16 22 27 31 42 53 63 69 74 82 90 98 104 108 110 112 112
23 20 19 18 19 19 22 28 30 26 27 20 19 16 16 12 14 13 14 14 13 12 16 16 18 19 19 20 23 22 26 32 44 51 56 62 71 82 90 96 100 102 104
20 18 18 20 21 24 28 32 31 29 28 27 22 19 18 19 19 20 22 18 20 21 23 22 22 25 27 27 30 31 30 26 31 40 47 51 57 65 73 80 87 93 96
18 17 21 24 24 28 30 31 31 32 33 29 23 26 28 22 25 23 25 28 26 26 27 28 29 29 27 29 31 33 35 34 31 30 36 44 48 56 63 73 79 85 88
18 20 26 27 27 30 31 32 31 32 32 32 32 28 26 27 31 29 29 29 32 31 30 32 33 34 33 33 32 33 37 37 37 35 35 39 43 50 57 64 67 72 78
18 24 27 29 27 32 33 31 31 32 35 35 37 37 34 33 35 37 37 39 38 41 36 36 36 39 39 39 38 37 37 41 39 40 36 35 40 40 46 51 56 62 68
25 27 31 34 34 37 36 33 34 36 37 39 41 43 43 43 43 44 44 43 44 44 42 41 42 42 41 48 47 45 43 44 47 46 44 41 42 44 41 42 47 52 61
28 29 36 37 36 35 40 40 40 43 41 43 47 47 50 50 51 53 53 53 53 52 52 52 52 51 52 52 51 54 53 51 53 55 55 52 54 52 52 50 51 53 61
33 36 34 41 44 44 42 45 48 49 50 50 50 51 54 56 57 58 59 59 60 61 63 64 65 65 66 64 63 61 60 61 61 62 66 65 63 64 63 63 59 60 66
36 39 44 43 47 47 50 50 50 53 54 58 62 62 64 64 64 63 62 62 62 63 64 67 68 71 74 75 76 76 74 71 70 71 71 76 76 73 74 74 74 73 73

GFSMW_250_spd_135.txt.gz
Wind_Speed
78 80 80 82 84 87 88 89 89 90 90 92 93 95 95 96 96 98 99 99 97 94 91 88 83 78 70 67 68 73 69 67 65 58 57 56 60 45 42 36 44 46 44
87 89 92 92 91 92 93 95 97 98 98 98 99 100 100 101 102 102 104 105 103 100 99 95 91 84 77 76 73 82 81 79 73 67 56 60 59 48 43 40 46 29 41
91 95 96 97 100 102 103 104 104 101 100 100 99 97 97 99 103 107 105 103 104 106 105 102 99 97 90 86 78 91 87 82 81 72 72 68 56 67 58 53 46 43 42
101 103 105 105 107 108 107 105 103 99 99 97 97 96 99 98 98 96 96 97 97 99 100 101 100 98 89 86 85 97 100 95 84 85 71 69 68 60 61 56 54 54 47
103 103 103 105 108 106 103 101 98 97 97 96 96 94 93 92 89 88 85 87 89 91 89 91 93 92 89 85 88 92 106 104 92 83 84 76 70 60 61 64 60 59 55
107 106 105 107 106 104 101 99 98 97 95 92 90 86 83 79 76 74 74 76 81 84 85 82 82 85 84 82 84 90 113 110 102 94 85 80 76 67 57 57 55 50 53
109 109 107 108 104 101 98 95 92 89 87 81 77 74 70 66 64 65 65 66 68 71 72 73 70 72 77 79 83 86 100 111 113 100 93 85 80 77 65 60 63 60 61
109 104 104 102 98 93 88 85 83 79 75 68 63 61 56 58 55 53 53 56 58 60 61 61 61 64 70 76 77 83 92 98 120 107 106 93 87 79 74 64 66 64 67
103 99 98 93 89 85 81 77 73 68 61 57 52 48 51 50 45 43 43 44 46 47 48 51 52 55 62 69 70 76 87 96 119 117 108 100 93 85 73 72 70 70 71
95 94 88 85 79 75 71 66 61 57 50 41 40 43 44 39 39 38 38 38 38 37 39 40 42 45 51 58 63 69 81 94 116 122 115 108 101 92 83 77 76 77 73
86 82 76 72 69 65 58 54 50 42 35 34 35 36 33 34 33 32 33 34 33 31 33 34 34 36 41 47 52 61 74 85 113 122 120 109 108 99 88 87 84 81 76
72 68 66 63 55 50 46 44 41 33 30 30 29 27 28 27 24 23 22 23 23 26 29 29 29 31 33 38 43 53 66 78 103 119 123 112 110 103 98 89 90 85 81
64 61 54 47 42 42 42 39 35 29 27 28 24 23 22 21 17 14 12 16 16 20 21 21 22 23 25 28 34 45 57 74 87 113 124 116 114 109 104 96 90 88 88
55 48 43 40 39 36 36 34 31 28 26 24 21 18 18 20 16 11 9 13 15 14 12 14 13 15 17 20 23 36 50 64 78 97 118 123 118 115 112 107 104 96 98
44 41 38 36 34 31 29 27 25 23 21 21 19 20 19 18 17 14 11 12 7 6 3 2 3 5 8 12 15 24 37 52 70 85 106 117 121 120 119 115 113 110 110
38 36 35 30 26 23 21 20 20 19 23 22 22 23 22 21 14 14 10 7 3 5 8 6 5 2 4 6 7 12 24 41 58 74 89 108 117 123 124 123 124 120 117
34 33 30 24 20 17 16 17 20 23 24 24 23 22 24 19 14 13 11 11 8 5 7 8 11 11 9 9 11 11 18 27 43 61 75 89 107 117 122 123 124 127 128
32 28 25 20 17 14 16 21 24 27 28 25 23 23 26 19 16 13 12 11 11 11 10 10 11 12 12 13 12 18 19 20 33 49 62 72 82 99 121 126 128 128 129
29 26 22 18 18 19 24 25 27 28 32 27 25 22 19 17 18 17 17 17 20 20 18 20 19 18 17 19 19 20 21 23 29 33 44 56 70 81 94 106 120 126 129
26 24 20 18 20 24 26 29 30 27 28 30 29 28 21 20 20 22 23 23 25 25 27 25 25 26 26 26 27 27 27 27 30 34 36 39 46 61 70 75 84 97 109
25 21 18 19 23 26 30 30 30 30 28 30 35 34 32 30 29 28 28 29 30 30 31 31 30 30 31 33 33 34 35 35 34 35 38 39 43 45 51 58 67 75 84
25 20 18 23 28 28 31 33 33 34 34 32 33 35 34 37 39 39 38 34 37 37 37 38 38 38 38 37 39 41 41 42 43 44 44 43 45 45 45 50 56 61 68
25 21 19 24 31 30 31 33 36 36 38 37 38 41 42 40 41 43 43 42 44 45 46 46 46 46 44 46 47 48 50 51 53 54 54 54 53 52 52 52 52 55 59
27 25 23 24 32 32 33 33 39 39 40 41 42 44 46 47 49 52 53 54 52 53 54 54 55 55 55 57 58 58 60 61 61 60 62 63 63 62 61 61 60 59 59
29 29 30 28 30 38 36 38 38 43 46 47 46 48 50 52 56 56 58 58 60 61 62 63 64 65 66 67 69 72 75 77 77 75 74 72 72 72 71 70 69 69 68
31 33 33 35 35 39 40 44 46 47 49 54 55 56 57 58 60 62 64 64 63 64 66 68 69 71 71 72 73 75 78 79 82 83 82 80 79 78 78 78 78 79 79

GFSMW_250_spd_138.txt.gz
Wind_Speed
75 76 78 80 81 82 83 84 86 88 90 92 93 95 95 95 96 95 95 95 96 94 89 90 87 82 78 75 71 74 74 72 74 73 68 61 56 46 51 52 53 49 46
83 83 82 84 86 87 90 92 94 96 97 99 101 101 101 101 101 99 97 94 95 95 93 89 89 88 84 82 81 77 79 77 81 84 80 75 69 53 55 58 59 57 54
85 85 88 89 90 92 94 97 99 102 103 101 100 98 97 97 97 96 97 96 95 94 95 97 95 94 92 89 87 85 82 86 88 90 91 80 72 74 68 55 53 60 55
91 94 94 97 101 103 104 105 104 103 102 100 97 94 94 93 92 93 95 96 97 98 98 94 96 99 97 96 91 90 89 92 91 98 98 91 84 74 73 64 63 62 60
97 100 102 109 110 110 110 109 105 101 98 95 93 93 90 89 88 90 91 94 96 97 98 98 94 92 97 95 95 97 96 94 97 101 107 102 94 86 81 73 72 68 62
104 106 110 114 113 110 109 104 102 97 94 92 89 88 85 83 82 82 84 85 87 87 86 87 87 85 84 88 89 93 97 96 97 104 108 110 105 93 90 80 78 76 75
106 110 114 114 108 104 101 99 95 91 89 84 80 80 76 73 72 72 72 70 69 69 70 70 72 73 72 75 81 83 86 93 97 106 112 115 112 108 101 89 82 75 77
108 112 111 109 105 99 95 91 88 82 76 72 69 66 64 61 60 60 58 55 55 57 58 59 59 60 62 66 73 78 79 85 90 101 114 121 119 120 110 96 94 82 77
113 113 109 103 96 90 86 82 77 71 67 64 62 58 54 52 50 47 45 43 43 45 46 47 48 49 52 56 63 70 76 79 84 93 103 119 127 125 120 107 102 84 82
116 109 101 93 86 81 75 69 65 62 61 56 51 48 46 43 37 36 35 35 36 36 35 36 38 40 42 45 52 59 65 72 79 82 91 107 123 131 130 119 109 91 83
105 97 89 82 74 68 64 62 60 55 51 46 41 38 38 31 30 28 27 28 26 29 28 26 28 29 32 35 41 48 53 61 71 78 82 94 111 134 133 122 114 98 87
97 86 76 69 64 60 58 53 50 46 42 37 34 32 26 25 24 20 18 17 22 24 20 18 19 21 24 28 34 40 45 53 59 65 72 82 98 122 136 126 118 102 97
86 74 66 61 57 53 48 46 41 38 35 31 27 24 21 21 18 16 16 15 15 16 14 11 13 15 17 21 24 29 34 40 48 57 64 75 86 94 130 129 124 113 100
71 63 58 54 48 44 42 39 35 32 30 27 25 21 19 18 18 18 14 12 14 15 12 7 4 6 8 10 13 18 24 30 37 45 54 66 76 82 99 130 125 116 106
61 55 49 42 40 37 33 30 29 27 24 23 20 18 18 19 20 19 15 12 13 12 9 6 5 2 2 4 5 8 12 18 26 35 45 55 63 72 82 103 125 125 114
53 45 38 34 36 31 26 24 23 21 18 18 19 19 21 21 21 17 13 9 11 7 6 8 7 4 3 3 2 3 4 7 13 22 32 44 54 63 76 93 109 115 116
44 35 33 33 32 27 22 20 18 17 19 22 22 25 24 23 21 20 13 12 12 8 6 7 7 10 8 7 7 6 7 6 9 13 20 31 44 57 71 87 106 112 117
35 31 31 32 29 24 19 19 18 17 22 27 25 25 23 24 21 21 16 15 14 14 10 9 10 11 11 12 13 13 12 13 14 15 17 19 31 50 64 77 97 113 119
31 29 30 29 26 23 20 21 22 24 29 27 27 27 23 22 26 25 17 17 16 15 17 17 18 19 18 16 15 15 16 17 19 20 21 24 29 38 56 70 83 106 115
29 28 28 26 24 23 23 25 28 30 31 29 25 24 26 25 23 19 20 22 23 26 28 27 26 26 25 24 25 24 24 24 25 24 27 28 31 37 44 57 75 88 105
29 27 25 24 23 23 25 31 33 32 35 34 31 30 30 30 30 29 27 28 29 30 32 33 32 31 32 32 32 31 31 32 33 33 34 33 35 39 41 50 60 78 90
29 29 24 22 24 23 27 33 37 35 35 31 34 35 37 39 37 38 38 38 38 38 37 37 38 39 39 38 39 37 38 40 41 41 43 45 45 44 47 52 57 65 76
31 31 26 21 24 25 29 35 37 39 38 37 35 37 38 41 46 48 46 48 49 49 50 48 48 49 50 49 49 51 51 50 52 52 52 52 55 56 56 56 57 64 68
33 33 29 24 24 26 31 35 39 41 42 41 42 45 47 48 48 49 51 52 52 53 54 55 56 57 56 56 57 58 59 61 63 65 65 65 65 67 68 68 68 68 68
34 34 31 29 26 28 32 38 39 40 42 46 48 49 50 52 53 53 55 56 58 61 62 62 64 64 64 65 66 68 70 72 75 77 78 78 77 77 77 77 77 76 75
37 36 34 33 30 31 33 38 41 45 41 47 49 53 54 54 57 58 60 62 64 65 65 66 67 69 69 69 68 68 73 76 76 77 77 79 79 82 81 81 81 83 84

GFSMW_250_spd_141.txt.gz
Wind_Speed
70 73 76 79 83 86 88 89 88 87 88 90 93 94 96 99 100 101 102 102 102 100 97 96 93 91 92 92 88 86 79 78 80 84 76 75 67 69 72 66 65 62 54
74 77 80 82 84 86 88 91 93 96 99 101 103 106 107 107 108 107 106 106 105 103 100 98 98 95 95 94 95 94 88 81 83 87 90 83 76 75 81 76 69 63 62
81 83 85 88 90 92 94 97 100 102 104 107 111 112 110 108 106 105 103 106 103 103 101 98 97 99 98 96 97 94 94 88 87 89 95 95 84 84 81 84 82 68 69
86 88 89 90 92 95 99 103 108 111 113 113 113 113 109 104 98 96 95 95 97 99 99 97 95 95 98 99 97 97 95 93 89 91 97 100 98 93 90 90 86 75 67
89 90 92 94 97 101 105 108 110 114 116 118 116 111 101 95 90 89 88 88 89 91 91 94 94 92 91 94 96 96 94 93 92 95 94 105 107 101 102 97 96 83 73
95 96 99 102 104 107 108 110 113 115 116 113 107 98 93 87 83 80 78 78 79 82 82 83 85 86 87 87 89 92 94 95 94 99 98 97 107 110 108 105 101 94 85
98 101 105 107 108 109 111 114 114 113 105 98 93 87 81 76 73 70 70 69 70 70 69 70 71 74 76 79 78 81 86 90 93 96 101 101 101 115 115 111 111 104 97
103 108 111 110 110 112 114 114 108 99 90 85 79 73 68 65 62 60 60 58 55 56 55 56 58 59 61 63 65 65 71 76 80 90 97 106 105 109 120 120 118 115 105
107 111 111 112 114 112 109 105 95 84 76 72 67 62 60 57 54 50 44 42 41 41 42 42 45 49 52 55 56 57 60 64 69 74 84 89 101 111 117 123 120 121 114
113 114 115 116 114 108 103 91 79 70 66 63 59 56 51 47 42 36 33 31 30 29 30 34 34 35 39 43 45 46 48 52 58 66 72 77 86 99 114 123 123 126 124
114 116 115 114 107 99 88 78 67 63 60 56 49 44 39 36 30 27 26 24 21 21 23 24 26 28 30 33 35 37 39 41 46 55 64 67 75 88 99 114 128 128 130
116 115 111 105 98 86 74 68 61 58 52 46 40 35 32 28 25 21 19 16 14 17 19 18 21 21 22 24 26 29 31 34 37 43 53 61 69 78 87 105 118 127 129
112 109 100 97 83 74 66 61 56 50 44 37 32 28 25 21 20 16 14 12 11 14 17 17 16 17 14 14 17 21 25 29 33 37 42 50 59 68 78 88 94 119 126
108 100 91 83 73 64 60 55 48 42 36 30 25 23 21 18 16 14 15 13 13 15 13 13 12 10 8 8 7 9 14 19 24 29 35 41 48 56 66 77 84 92 113
97 88 82 73 61 55 52 48 41 35 28 26 21 19 21 18 17 17 16 15 14 10 10 9 11 10 9 8 4 3 6 8 9 13 20 28 36 45 53 64 70 78 89
86 76 68 59 51 47 44 40 36 29 25 22 19 18 19 21 22 19 15 14 14 11 11 11 8 8 6 4 5 5 6 6 5 6 7 12 20 28 38 49 59 67 76
68 63 57 49 45 40 40 34 29 25 22 20 18 20 22 23 21 22 20 14 15 13 10 9 9 9 9 9 9 8 9 10 11 10 11 9 9 14 23 34 44 54 64
63 54 47 43 38 36 35 30 26 24 20 19 21 21 22 23 22 23 21 20 20 18 17 15 12 12 11 11 10 11 11 13 15 16 17 18 15 12 15 23 32 43 54
50 44 42 35 33 34 32 27 26 25 22 25 28 26 26 27 25 25 25 23 21 21 22 22 22 19 18 19 17 16 15 16 16 16 17 19 20 19 18 20 27 36 44
42 40 36 30 31 32 29 26 26 27 27 29 29 30 30 28 27 24 28 29 28 24 25 26 27 28 28 25 26 24 23 23 22 23 23 23 25 25 25 25 26 31 42
39 36 31 28 29 29 27 25 26 29 32 31 34 33 32 33 32 32 32 32 30 28 30 31 31 32 31 31 32 31 33 32 33 33 33 33 33 33 33 33 34 35 39
34 32 30 28 26 26 26 25 26 33 37 35 38 35 35 35 35 36 35 36 36 36 37 38 39 39 38 39 40 40 40 41 41 40 41 41 41 42 43 44 44 43 46
32 31 31 30 27 23 26 28 26 34 40 40 40 43 41 40 40 39 42 44 44 44 44 46 47 47 47 47 47 47 49 49 50 54 54 55 54 52 53 54 54 56 56
31 33 32 32 30 27 25 28 28 34 44 45 45 44 46 44 45 48 48 50 52 53 55 58 58 59 62 60 60 61 59 61 63 65 65 65 67 68 69 70 71 70 69
34 35 36 35 34 32 29 28 30 32 43 46 48 50 49 49 51 53 54 55 57 58 60 61 62 64 65 65 65 65 65 65 67 69 71 74 78 80 82 81 77 78 80
36 38 40 39 38 37 34 33 33 34 39 45 48 51 54 56 58 58 59 61 63 64 65 65 66 69 70 69 69 69 68 68 69 72 73 76 78 80 81 79 78 78 80

GFSMW_250_spd_144.txt.gz
Wind_Speed
57 62 63 65 69 72 74 78 81 84 87 91 94 95 97 100 103 107 108 108 108 108 108 106 104 105 103 101 96 97 94 89 89 87 88 91 85 77 74 74 70 71 67
62 65 68 71 74 78 82 85 88 90 92 94 95 98 102 105 107 110 111 112 109 108 107 108 109 110 111 110 105 99 96 95 94 93 93 90 91 85 85 87 84 80 77
67 69 75 79 83 85 87 90 93 96 99 101 102 104 109 112 114 116 115 114 111 108 107 106 104 101 103 103 102 100 96 94 94 95 96 98 91 90 98 94 92 90 82
77 80 83 86 89 91 93 95 98 102 105 108 111 114 116 116 118 116 112 108 102 96 92 92 91 91 90 92 95 97 96 91 91 95 97 94 97 101 96 101 98 95 85
83 85 88 94 94 97 99 103 106 108 111 115 118 118 120 118 113 105 96 90 84 83 81 80 82 83 83 83 85 89 91 89 88 93 96 98 96 97 97 104 104 101 93
88 91 95 97 99 102 106 109 113 114 117 120 120 120 115 105 98 89 83 76 72 70 69 69 70 71 74 78 79 81 85 88 88 91 95 93 97 101 102 101 108 109 102
98 99 99 102 106 108 110 114 116 118 120 122 119 113 101 92 82 75 69 65 61 57 56 56 57 59 62 66 70 73 77 81 84 88 92 92 89 94 100 103 108 117 109
103 105 108 110 109 110 114 117 120 122 121 119 112 98 87 78 69 62 58 54 52 48 46 47 49 51 53 57 60 62 65 69 74 78 83 88 87 85 93 99 105 120 119
103 106 108 112 114 115 117 120 122 121 118 111 99 84 74 65 60 53 48 42 37 35 34 34 37 41 42 45 48 52 54 57 62 68 72 75 81 84 92 97 103 115 125
102 108 114 115 115 117 119 121 120 117 109 98 82 72 62 54 48 41 34 28 25 23 22 26 28 29 31 35 39 43 45 46 48 52 58 61 67 75 85 93 100 107 118
104 114 116 115 117 119 120 117 112 104 92 81 70 60 52 43 37 32 26 22 19 17 16 16 18 21 22 25 29 31 35 37 40 42 46 52 57 63 72 83 95 106 109
111 117 120 117 119 118 114 107 99 89 78 67 56 50 44 35 29 24 20 16 14 13 13 12 13 15 16 19 21 24 27 28 31 34 37 41 48 55 62 70 82 94 107
113 115 119 118 116 110 103 96 84 73 66 56 48 43 36 27 22 18 14 13 13 11 11 11 12 14 14 11 11 15 17 19 23 27 30 34 39 44 52 60 71 76 93
113 113 113 112 107 97 88 77 69 63 55 48 42 35 29 23 21 15 14 15 12 9 11 12 12 11 12 10 8 7 4 5 9 15 21 27 32 34 40 50 58 64 73
115 115 115 100 91 86 77 68 62 53 47 43 38 29 25 22 23 17 17 17 13 10 9 9 10 12 11 12 13 8 7 9 6 7 9 13 18 24 31 39 44 53 66
113 112 95 86 80 74 64 58 49 46 43 38 33 25 22 22 23 23 21 17 15 16 13 13 15 14 11 6 4 6 8 7 10 9 8 6 7 12 19 28 35 43 56
100 88 82 76 64 58 52 45 42 43 39 35 28 22 21 23 25 26 24 19 16 18 16 14 13 12 14 13 13 13 14 13 13 10 8 7 7 10 11 16 22 29 39
83 77 71 63 58 52 42 39 39 39 36 33 27 22 21 24 29 27 28 22 20 20 20 19 19 18 16 14 14 14 14 14 16 18 17 14 13 11 12 15 16 20 25
74 69 62 55 48 42 36 36 38 36 35 32 27 25 24 26 29 27 26 25 24 24 22 27 26 25 25 23 22 21 20 20 19 19 19 19 20 21 20 17 17 20 21
65 59 54 49 42 36 33 35 37 35 32 30 27 28 28 28 29 31 29 28 30 30 28 26 28 27 30 30 28 28 27 26 25 25 24 24 25 25 26 26 27 25 25
55 51 47 42 38 35 31 33 34 32 31 29 31 33 34 35 34 34 36 35 33 34 35 35 36 34 33 34 34 33 31 31 31 32 33 34 34 34 35 36 36 36 35
49 45 41 37 36 33 30 30 28 30 30 31 32 36 38 39 39 39 38 39 36 36 36 39 40 39 40 39 39 41 41 40 40 41 41 42 42 43 44 44 45 46 46
44 40 38 37 35 34 31 30 28 29 30 31 32 37 40 42 44 44 42 43 41 43 44 43 45 46 47 49 49 50 50 50 49 49 50 51 52 53 54 55 57 57 57
39 37 38 37 38 35 34 32 31 30 29 30 32 40 43 44 47 47 46 45 44 47 51 52 54 54 54 57 58 58 59 60 61 59 60 62 63 64 67 69 70 72 75
37 37 37 39 40 39 38 37 36 34 32 32 33 35 46 48 51 54 54 52 53 54 55 57 58 60 61 63 64 66 68 69 69 68 67 67 68 71 74 75 77 79 81
37 38 40 41 42 43 42 42 41 39 38 36 36 36 39 51 54 56 57 59 62 62 61 61 65 66 67 68 70 72 74 75 74 72 73 73 74 74 75 76 78 81 81

GFSMW_250_spd_147.txt.gz
Wind_Speed
60 61 61 61 61 62 63 66 75 77 81 84 87 90 92 97 99 103 106 107 108 108 107 107 105 104 106 108 105 104 102 101 102 102 100 97 92 88 81 85 86 82 73
60 64 64 59 65 69 72 75 78 82 87 92 94 96 98 103 107 111 114 115 115 115 113 110 108 108 108 108 106 104 102 103 105 99 96 93 94 92 92 95 99 88 81
64 64 65 69 74 75 78 82 86 91 96 99 99 101 106 111 114 117 119 121 118 114 109 102 98 96 94 96 98 101 101 101 104 101 97 93 92 92 95 95 100 100 98
67 72 75 78 80 83 88 92 92 97 102 104 107 108 112 117 119 120 121 119 114 106 96 88 83 78 79 84 88 92 96 98 99 103 100 99 99 96 95 98 100 103 101
75 77 78 79 85 90 94 96 98 102 107 107 109 114 119 122 122 121 115 106 96 87 81 76 71 67 65 67 72 78 82 88 91 97 99 96 97 97 96 99 101 104 105
81 83 84 85 89 91 96 99 102 108 110 110 114 119 122 122 122 115 101 88 80 73 68 63 59 58 57 57 59 64 69 73 78 83 87 86 87 91 93 97 101 103 108
87 88 89 89 91 95 100 103 108 109 114 117 120 122 124 122 114 98 85 75 71 63 57 54 51 50 49 48 49 52 57 62 67 72 76 79 79 83 89 92 97 101 102
89 89 95 96 100 103 106 108 110 115 117 120 120 119 119 113 99 84 74 65 59 52 49 46 43 42 43 43 44 45 48 52 57 63 68 73 75 75 79 84 93 103 107
93 98 101 104 106 107 112 110 114 120 120 120 120 118 112 99 86 72 62 53 46 41 38 35 34 34 34 35 35 37 40 44 48 54 59 63 68 72 74 78 87 98 106
98 99 103 111 113 112 113 114 122 120 121 119 115 111 98 87 72 60 50 42 36 31 26 24 21 22 23 23 25 28 31 35 39 44 49 54 59 62 69 75 80 89 101
103 102 107 113 118 115 119 122 125 120 118 116 110 98 86 74 59 50 40 33 27 21 18 15 15 15 15 18 21 23 25 28 31 34 37 42 47 53 61 67 74 82 91
109 112 112 117 120 120 122 124 123 119 113 107 96 85 71 61 47 40 33 30 19 16 14 12 11 11 14 16 17 17 18 19 22 26 29 34 38 43 50 58 67 76 84
115 116 117 121 120 125 124 122 114 110 99 92 83 70 59 48 39 34 27 28 20 15 13 12 10 10 10 12 11 11 10 10 13 18 22 25 30 35 42 48 55 64 73
116 117 120 122 127 126 121 111 107 93 87 81 68 55 48 38 33 29 25 25 22 16 12 10 12 13 11 8 8 9 5 2 5 7 13 19 23 29 34 40 44 50 59
122 123 127 131 128 117 111 104 89 83 78 67 58 49 39 35 29 24 23 28 24 18 12 11 13 14 14 12 13 11 10 9 8 9 10 11 12 18 25 31 35 40 48
126 131 124 122 110 108 101 87 80 75 68 56 49 42 35 32 26 22 24 29 29 22 17 15 15 17 17 16 13 12 11 10 9 6 7 9 9 10 13 18 24 30 36
127 121 113 106 102 94 84 78 72 64 54 47 43 38 34 30 25 23 25 30 33 28 23 21 20 20 21 19 18 16 15 15 14 13 10 11 11 11 13 13 14 19 26
113 106 100 95 86 79 73 68 60 51 46 43 39 35 33 29 25 27 29 33 33 30 22 22 24 22 21 19 21 21 18 16 16 16 16 14 13 13 13 15 16 16 17
102 95 87 78 70 67 61 54 47 41 39 40 38 35 32 29 28 29 32 31 35 33 30 28 29 28 27 27 27 26 25 23 22 20 20 21 21 20 19 19 17 17 19
90 81 74 66 61 56 50 45 40 36 37 38 37 34 31 30 31 31 32 37 36 40 37 35 32 29 32 34 32 33 33 31 30 29 29 28 28 27 26 27 27 27 27
73 69 65 58 52 46 43 38 36 35 34 35 35 32 30 30 33 35 35 36 39 41 41 41 38 36 36 34 34 35 36 37 36 36 35 34 33 33 33 34 34 35 36
64 61 55 48 45 41 39 36 36 35 35 34 33 30 29 30 34 38 39 41 42 43 43 43 43 43 41 41 42 43 43 43 42 43 42 41 41 41 41 42 43 44 45
56 51 45 43 39 37 36 36 37 36 35 35 33 31 29 31 33 38 43 45 48 49 49 47 47 49 47 47 47 48 48 49 50 50 52 52 52 51 51 53 52 52 55
47 44 41 38 35 35 36 37 39 39 38 37 36 35 33 31 32 36 43 48 51 52 53 51 50 52 55 56 56 57 56 57 59 58 59 60 61 62 60 59 63 64 68
42 39 37 35 35 36 38 40 41 44 44 42 41 39 38 37 35 34 39 46 52 54 57 57 57 59 62 61 62 64 64 66 66 66 67 68 69 71 73 73 75 75 75
38 35 35 35 36 38 40 42 44 45 47 48 47 46 44 43 42 41 40 41 48 55 59 61 63 64 65 66 68 70 71 71 72 72 71 72 76 78 78 77 77 77 77